Location: Aubervilles
(48.9167°N, 2.3833°E)
Time: 09:22:41
(UTC+00:00)

Spot 1 - Pass Details

Date: 03 February 2023
Orbit: 575 x 772 km, 98.8° (Epoch: 28 March)

Event Time Altitude Azimuth Distance (km) Brightness Sun altitude
Exits shadow 18:52:23 52° 114° (ESE) 720 4.0 -20.1°
Drops below altitude 10° 18:56:08 10° 179° (S) 1,882 6.5 -20.8°
Sets 18:58:19 0° 185° (S) 2,782 7.5 -21.1°
